BLOCK DM-SL R/B, 28627

Orbit data source: Space-Track

BLOCK DM-SL R/B, 28627 is space debris in HEO originally from a launch on Tue, 01 Mar 2005 UTC launched from the Sea Launch (SEAL). Debris objects in space refer to the collection of defunct objects orbiting the Earth. Examples of debris include non-operational satellites, rocket bodies, and fragments generated from explosions, collisions, or faulty payload assembly.

Loading next visibility...
Identifier
28627, 2005-008B
Orbit
HEO
Country
Flag of UnknownUnknown / SEAL
Related business
Manufacturer
RKKE
Mission
Spacecraft
Bus & Motor
BLOK DM2, 11D58M
Mass
~3,070 kg wet, 3,070 kg dry
Launch date (UTC)
2005-03-01 (21 years ago)
Launch vehicle
Unknown
Launch site
Sea Launch (SEAL)
Object type
Payload
Rocket body
Debris
Shape & HBR
Cyl, 3.1 m
Radar Cross Section
23.684 m², Large (>1 m²)

Expand to show TLE details & history
Last TLE update: 16 hours ago

TLE from 16 hours ago
0 BLOCK DM-SL R/B
1 28627U 05008B   25312.60378816 -.00000149  00000-0  00000+0 0  9994
2 28627   0.2875  64.9329 6535275 128.5377 132.7879  2.13876898161713
Epoch: 2025-11-08T14:29Z
TLE epoch observation values (Epoch: 2025-11-08T14:29:27.297Z)
Latitude
-0.25267°
Longitude
94.60549°
Altitude
33,596.004 km
Speed
2.069 km/s
True Right ascension
00h 00m 00s
True Declination
0° 15' 09"
Sunlit
Object was in daylight at epoch
Visualization orbit readout
Latitude
Unknown
Longitude
Unknown
Altitude
Unknown
Speed
Unknown
Apparent Right ascension
Unknown
Apparent Declination
Unknown
Sunlit
N/A
Visualization observer readout
Local Sidereal Time
03:08:34
Azimuth
Unknown
Elevation
Unknown
Doppler factor
Unknown
Orbital elements
Apogee altitude
35,704.77 km
Perigee altitude
2,439.721 km
Semi-major axis
25,450.382 km
Eccentricity
0.65353
Inclination
0.2875°
RAAN
64.9329°
Arg. of periapsis
128.5377°
True anomaly
166.47924°
Mean anomaly
132.7879°
Eccentric anomaly
150.96264°
Mean motion
0.53457 °/min
Orbital period
673.44 mins
BSTAR
0
Loading maneuver chart data...
Computing Atmospheric mass density...
Loading historical data...
Loading historical data...
Loading historical data...
Loading historical data...
Loading historical data...
Loading historical data...
Loading historical data...
Other satellites on launch #8 in the year 2005 (2005-03-01 UTC)

Documentation

Showing up to 5 results
|